Location: Unspecified
(35.7250°N, 0.0000°E)
Time: 21:24:31
(UTC+00:00)

Vanguard 2 - Pass Details

Date: 01 July 2019
Orbit: 553 x 2938 km, 32.9° (Epoch: 15 July)

Event Time Altitude Azimuth Distance (km) Brightness Sun altitude
Exits shadow 04:10:52 - 213° (SSW) 2,269 9.4 -7.1°
Reaches altitude 10° 04:11:47 10° 206° (SSW) 1,958 9.1 -7.0°
Maximum altitude 04:14:56 20° 158° (SSE) 1,314 8.6 -6.4°
Drops below altitude 10° 04:17:54 10° 108° (ESE) 1,822 10.0 -5.9°
Sets 04:20:35 0° 91° (E) 2,780 11.4 -5.5°
